sat.trackr.live / text

‹ back to catalog

STARLINK-5214

NORAD 54762 · 2022-175E

PAYLOAD ACTIVE UNKNOWN

§ Identity

Operator
Country
US
Launch date
2022-12-17
Launch site
AFETR
Launch vehicle
Mass (kg)
RCS (m²)

Purposes: comms

External: N2YO · Heavens-Above · Gunter

§ Orbital elements

Epoch: 2026-09-20T15:41:32.377344Z

Period
94.01 min
Inclination
53.1589°
Eccentricity
0.0001423
Mean motion
15.31715286 rev/d
Perigee alt
469.7 km
Apogee alt
471.7 km
Semi-major
6,848.8 km
B*
7.4098e-5
RAAN
234.1024°
Arg perigee
86.7719°
Mean anomaly
273.3445°
Rev number
20,955

§ Raw data

STARLINK-52141 54762U 22175E   26263.65384696  .00001936  00000+0  74098-4 0  99972 54762  53.1589 234.1024 0001423  86.7719 273.3445 15.31715286209559

JSON: /api/v1/satellites/54762 · /tle

For live sub-satellite position, see the globe view (requires WebGL).

§ Visibility from observer

Set your observer location to see the next 7 days of passes ≥ 10°. The values pass through the URL so the page stays shareable.

No JS? Fill the form by hand. The geolocation button needs JavaScript.